Weather observations for the past three days for
Wichita Falls, Sheppard Air Force Base
Imperial (Metric)
Date Time (cdt) Wind (mph) Vis. (mi.) Weather Sky Cond. Temperature (ºF) Relative Humidity Wind Chill (°F) Heat Index (°F) Pressure Precipitation (in)
Air Dwpt 6 hour altimeter (in) sea level (mb) 1 hr 3 hr 6 hr
Max. Min.
20 04:52 E 6 10.00 Fair CLR 73 68 84% 30.13 1018.9
20 02:52 NE 6 10.00 Light Rain CLR 73 66.9 81% 30.13 1018.9
20 01:52 E 5 10.00 Light Rain SCT110 73.9 66 76% 30.14 1019.2
20 00:52 E 5 10.00 Overcast OVC100 75.9 66.9 88 75.9 74% 77 30.16 1019.7
19 23:52 SE 9 10.00 Light Rain OVC100 77 66 69% 79 30.16 1019.8
19 22:52 SE 9 10.00 Light Rain BKN090 79 63 58% 81 30.14 1019.3
19 21:52 SE 14 10.00 Light Rain OVC080 82 66 58% 84 30.12 1018.5
19 20:52 E 10 10.00 Light Rain SCT080 82.9 68 61% 86 30.09 1017.6
19 19:52 E 16 10.00 Light Rain FEW049 BKN070 86 69.1 57% 90 30.07 1016.8
19 18:52 E 15 10.00 Light Rain SCT048 BKN070 88 69.1 90 86 54% 92 30.05 1016.3
19 17:52 E 12 10.00 Light Rain CLR 89.1 68 50% 93 30.05 1016.1
19 16:52 E 16 G 26 10.00 Light Rain FEW048 89.1 66.9 48% 92 30.06 1016.4
19 15:52 SE 20 10.00 Light Rain FEW043 OVC070 87.1 68 53% 91 30.07 1016.7
19 14:52 SE 15 10.00 Mostly Cloudy FEW047 BKN060 88 66.9 50% 91 30.07 1016.8
19 13:52 SE 13 10.00 Partly Cloudy SCT046 89.1 68 50% 93 30.08 1017.2
19 12:52 SE 12 10.00 Partly Cloudy SCT044 87.1 70 88 72 57% 92 30.1 1017.9
19 11:52 E 8 10.00 Mostly Cloudy BKN034 86 69.1 57% 90 30.11 1018.2
19 10:52 SE 9 10.00 Mostly Cloudy FEW025 BKN034 81 69.1 67% 84 30.11 1018.1
19 09:52 SE 9 G 18 10.00 Overcast BKN023 OVC030 80.1 69.1 69% 83 30.1 1018.0
19 08:52 SE 13 10.00 A Few Clouds FEW020 78.1 69.1 74% 80 30.09 1017.6
19 07:52 E 12 10.00 Fair CLR 75 68 79% 76 30.07 1016.7
19 06:52 E 8 10.00 Fair CLR 72 68 77 72 87% 30.03 1015.5
19 05:52 SE 9 10.00 Fair CLR 72 66.9 84% 29.98 1013.9
19 04:52 SE 12 10.00 Fair CLR 73 66.9 81% 29.95 1012.7
19 03:52 S 16 10.00 Fair CLR 75 66.9 76% 76 29.93 1012.0
19 02:52 SE 15 10.00 Fair CLR 77 69.1 77% 79 29.93 1012.0
19 01:52 SE 10 10.00 Fair CLR 75.9 70 82% 77 29.93 1011.8
19 00:52 SE 6 10.00 A Few Clouds FEW039 FEW049 75.9 69.1 89.1 75.9 79% 77 29.93 1012.0
18 23:52 SE 8 10.00 Fair CLR 78.1 69.1 74% 80 29.91 1011.3
18 22:52 SE 9 10.00 Fair CLR 79 69.1 72% 82 29.89 1010.6
18 21:52 SE 8 10.00 Fair CLR 80.1 68 67% 83 29.86 1009.5
18 20:52 SE 12 10.00 A Few Clouds FEW055 84 68 59% 87 29.83 1008.7
18 19:52 S 15 G 26 10.00 Mostly Cloudy BKN060 87.1 66.9 51% 90 29.81 1007.9
18 18:52 S 25 G 37 10.00 Partly Cloudy and Breezy SCT055 89.1 68 91 87.1 50% 93 29.78 1007.0
18 17:52 S 20 G 29 10.00 Mostly Cloudy BKN048 90 69.1 50% 95 29.78 1006.8
18 16:52 S 20 G 31 10.00 Mostly Cloudy BKN048 91 70 50% 97 29.79 1007.1
18 15:52 SE 22 G 33 10.00 Mostly Cloudy and Breezy BKN045 87.1 70 57% 92 29.81 1007.7
18 14:52 S 25 G 39 10.00 Mostly Cloudy and Breezy SCT040 BKN250 90 70 52% 95 29.79 1007.2
18 13:52 SE 28 G 36 10.00 Mostly Cloudy and Windy BKN041 89.1 71.1 55% 95 29.8 1007.4
18 12:52 S 17 G 35 10.00 Mostly Cloudy BKN041 87.1 70 88 75 57% 92 29.83 1008.4
18 11:52 S 23 G 32 10.00 Mostly Cloudy and Breezy BKN035 BKN043 86 71.1 61% 92 29.82 1008.3
18 10:52 S 22 G 40 10.00 Overcast and Breezy OVC035 82.9 69.1 63% 87 29.82 1008.2
18 09:52 S 23 G 35 10.00 Partly Cloudy and Breezy SCT029 SCT035 82 70 67% 86 29.82 1008.2
18 08:52 S 22 G 33 10.00 Fair and Breezy CLR 79 69.1 72% 82 29.81 1007.7
18 07:52 S 22 G 35 10.00 Partly Cloudy and Breezy SCT035 75.9 68 77% 77 29.79 1007.2
18 06:52 S 22 G 32 10.00 Partly Cloudy and Breezy SCT025 75 66.9 81 75 76% 76 29.8 1007.7
18 05:52 S 20 G 28 10.00 Fair CLR 75.9 69.1 79% 77 29.78 1006.8
18 04:52 S 17 G 26 10.00 Fair CLR 77 70 79% 79 29.76 1006.2
18 03:52 S 22 G 30 10.00 Fair and Breezy CLR 79 70 74% 82 29.75 1005.8
18 02:52 S 21 G 33 10.00 Fair and Breezy CLR 79 71.1 77% 82 29.75 1005.9
18 01:52 S 24 G 35 10.00 Fair and Breezy CLR 80.1 71.1 74% 84 29.76 1006.0
18 00:52 SE 24 G 33 10.00 Fair and Breezy CLR 81 72 91 81 74% 85 29.76 1006.2
17 23:52 SE 21 G 32 10.00 Fair and Breezy CLR 82.9 71.1 67% 88 29.76 1006.1
17 22:52 SE 18 G 24 10.00 Fair CLR 82.9 70 65% 87 29.75 1005.9
17 21:52 SE 17 G 29 10.00 Fair CLR 84.9 70 61% 89 29.73 1005.1
17 20:52 SE 18 G 28 10.00 Fair CLR 87.1 69.1 55% 91 29.71 1004.5
17 19:52 SE 21 G 32 10.00 A Few Clouds and Breezy FEW060 89.1 70 53% 94 29.71 1004.3
17 18:52 S 18 G 31 10.00 A Few Clouds FEW060 91 70 93 89.1 50% 97 29.69 1003.8
17 17:52 S 21 G 36 10.00 Partly Cloudy and Breezy SCT055 91.9 70 49% 98 29.69 1003.9
17 16:52 S 25 G 37 10.00 Partly Cloudy and Breezy SCT055 93 70 47% 99 29.7 1004.0
17 15:52 S 28 G 36 10.00 Partly Cloudy and Windy SCT055 91.9 71.1 51% 99 29.72 1004.8
17 14:52 SE 22 G 36 10.00 Partly Cloudy and Breezy SCT049 91 70 50% 97 29.74 1005.5
17 13:52 S 24 G 31 10.00 Partly Cloudy and Breezy SCT046 91 72 54% 99 29.76 1006.3
17 11:52 S 20 G 26 10.00 Partly Cloudy SCT037 89.1 72 57% 96 29.79 1007.2
17 10:52 S 22 G 31 10.00 Partly Cloudy and Breezy SCT030 87.1 71.1 59% 93 29.79 1007.2
17 09:52 S 18 G 33 10.00 A Few Clouds FEW025 84 72 67% 90 29.8 1007.5
17 08:52 S 21 10.00 A Few Clouds and Breezy FEW020 82 71.1 69% 86 29.8 1007.4
17 07:52 S 16 G 24 10.00 Fair CLR 79 71.1 77% 82 29.78 1006.8
17 06:52 Calm 10.00 Fair CLR 75.9 71.1 79 75 85% 76 29.77 1006.7
17 05:52 S 10 10.00 Fair CLR 75 70 84% 75 29.78 1006.8
Date Time (cdt) Wind (mph) Vis. (mi.) Weather Sky Cond. Air Dwpt Max. Min. Relative Humidity Wind Chill (°F) Heat Index (°F) altimeter (in) sea level (mb) 1 hr 3 hr 6 hr
6 hour
Temperature (ºF) Pressure Precipitation (in)